Location: Unspecified
(64.9000°N, 0.0000°E)
Time: 08:26:57
(UTC+00:00)

Vanguard 1 - Pass Details

Date: 27 June 2019
Orbit: 653 x 3830 km, 34.3° (Epoch: 23 July)

Event Time Altitude Azimuth Distance (km) Brightness Sun altitude
Rises 05:12:19 0° 247° (WSW) 6,907 13.7 15.9°
Reaches altitude 10° 05:24:01 10° 213° (SSW) 4,751 13.2 17.0°
Maximum altitude 05:24:53 10° 209° (SSW) 4,648 13.1 17.1°
Drops below altitude 10° 05:25:43 10° 205° (SSW) 4,561 13.1 17.2°
Sets 05:33:47 0° 164° (SSE) 4,583 13.5 18.0°
